Location: Opava
(49.9500°N, 17.9170°E)
Time: 03:24:57
(UTC+01:00)

ISS - Pass Details

Date: 02 October 2020
Orbit: 417 x 420 km, 51.6° (Epoch: 25 October)

Event Time Altitude Azimuth Distance (km) Brightness Sun altitude
Rises 20:19:19 0° 287° (WNW) 2,370 1.8 -19.2°
Reaches altitude 10° 20:21:31 10° 278° (W) 1,504 0.2 -19.5°
Maximum altitude 20:24:37 35° 212° (SSW) 702 -2.6 -20.0°
Enters shadow 20:24:57 34° 198° (SSW) 715 -2.7 -20.1°
